Regional Weather Roundup
Issued by NWS Grand Forks, ND

Home | Current Version | Previous Version | Graphics & Text | Print | Product List | Glossary On
Versions: 1 2 3 4 5 6 7 8 9 10 11 12 13 14 15 16 17 18 19 20 21 22 23 24 25 26 27 28 29 30 31 32 33 34 35 36 37 38 39 40 41 42 43 44 45 46 47 48 49 50
585
ASUS43 KFGF 211831
RWRFGF
PRAIRIE TO PINES  WEATHER ROUNDUP
NATIONAL WEATHER SERVICE EASTERN NORTH DAKOTA/GRAND FORKS ND
100 PM CDT SAT APR 21 2018

 **SATELLITE DATA USED TO AUGMENT SKY COVER AT AUTOMATED STATIONS**
 *****  WEATHER ACROSS EASTERN NORTH DAKOTA  *****

CITY           SKY/WX    TMP DP  RH WIND       PRES   REMARKS
GRAND FORKS    FAIR      54  45  71 S14       30.30F
6HR MIN TEMP:  34; 6HR MAX TEMP:  54;

GRAND FRKS AFB FAIR      55  45  68 S13       30.29F
GRAND FRKS NWS   N/A     56  44  63 S12       30.28F
DEVILS LAKE    FAIR      56  40  55 S14       30.25F
6HR MIN TEMP:  31; 6HR MAX TEMP:  57;

FARGO          FAIR      58  39  49 S12       30.32F
WAHPETON ARPT  FAIR      55  37  50 S8        30.33F
$$

 ***** WEATHER ACROSS CENTRAL AND WESTERN NORTH DAKOTA  *****

CITY           SKY/WX    TMP DP  RH WIND       PRES   REMARKS
BISMARCK       FAIR      61  35  37 S21G30    30.21F
6HR MIN TEMP:  36; 6HR MAX TEMP:  62;

MINOT          FAIR      58  40  51 S20G30    30.14F
6HR MIN TEMP:  39; 6HR MAX TEMP:  58;

JAMESTOWN      FAIR      59  40  49 S21       30.27F
6HR MIN TEMP:  33; 6HR MAX TEMP:  59;

MINOT AFB      FAIR      57  42  57 S25G32    30.13F
GARRISON         N/A     56  41  57 S21       30.15F
WILLISTON      FAIR      62  39  42 S16G24    30.06F
6HR MIN TEMP:  38; 6HR MAX TEMP:  62;

DICKINSON      FAIR      58  37  45 S24G32    30.11F
6HR MIN TEMP:  40; 6HR MAX TEMP:  58;

HETTINGER      FAIR      56  35  45 S23G30    30.17F
6HR MIN TEMP:  38; 6HR MAX TEMP:  57;

$$

 *****  OTHER AIRPORT OBSERVATIONS IN OUR AREA  *****

CITY           SKY/WX    TMP DP  RH WIND       PRES   REMARKS
WALHALLA       FAIR      61  41  48 S14       30.24F
GRAFTON AIRPOR FAIR      59  43  55 S14       30.29F
VALLEY CITY AR FAIR      55  46  71 SW9       30.31F
CANDO          FAIR      59  41  51 S18       30.24F
CAVALIER APRT    N/A     61  43  51 S16       30.24F
GWINNER          N/A     57  41  54 S8        30.31F
SHEYENNE NWR     N/A     58  40  50 S9        29.95S
ROLLA          FAIR      54  45  71 S28       30.19F
 ***** THE ABOVE OBSERVATIONS ARE NON NWS ARE NOT QUALITY
       CONTROLLED AND MAY MIS-REPORT RAIN FOR SNOW...
$$

  *****  WEATHER ACROSS NORTHERN MINNESOTA  *****

CITY           SKY/WX    TMP DP  RH WIND       PRES   REMARKS
FLAG ISLAND    FAIR      46  30  53 SE10      30.30F
WARROAD        FAIR      57  43  58 SW10G16   30.31F
ROSEAU         FAIR      57  43  58 S16       30.30F
HALLOCK        FAIR      57  46  67 S13       30.27F
THF RVR FALLS  FAIR      56  40  55 SW15      30.32F
6HR MIN TEMP:  32; 6HR MAX TEMP:  56;

BAUDETTE       FAIR      56  27  32 S9G22     30.32F
6HR MIN TEMP:  30; 6HR MAX TEMP:  57;

WASKISH        CLOUDY    52  32  46 W7        30.33F
CROOKSTON      PTSUNNY   55  45  67 SW14      30.33F
STEPHEN NDAWN    N/A     54  46  76 S13         N/A
GREENBUSH NDAW   N/A     54  45  71 S12         N/A
$$
  *****  WEATHER ACROSS CENTRAL AND WEST MINNESOTA  *****

CITY           SKY/WX    TMP DP  RH WIND       PRES   REMARKS
FOSSTON        FAIR      55  37  50 SW12      30.34S
BEMIDJI        FAIR      55  33  41 S5        30.33F
6HR MIN TEMP:  25; 6HR MAX TEMP:  55;

PARK RAPIDS    FAIR      54  31  41 SW8       30.34F
6HR MIN TEMP:  29; 6HR MAX TEMP:  55;

ELBOW LAKE     FAIR      55  35  46 S8        30.35F
6HR MIN TEMP:  33; 6HR MAX TEMP:  55;

WADENA         FAIR      55  30  38 SE6       30.34F
DETROIT LAKES  FAIR      55  32  41 S5        30.34F
MOORHEAD       FAIR      55  39  54 S9        30.33F
FERGUS FALLS   FAIR      55  36  47 S9        30.31F
MORRIS MN      FAIR      54  39  58 S10       30.35F
STAPLES        FAIR      54  27  35 CALM      30.36F
$$
  *****  WEATHER ELSEWHERE ACROSS MINNESOTA  *****

CITY           SKY/WX    TMP DP  RH WIND       PRES   REMARKS
DULUTH         FAIR      54  24  31 CALM      30.36F
6HR MIN TEMP:  31; 6HR MAX TEMP:  54;

INTRNTL FALLS  FAIR      58  24  27 W8        30.33F
6HR MIN TEMP:  27; 6HR MAX TEMP:  58;

ELY            FAIR      55  18  22 SW5       30.33F
CLOQUET        FAIR      55  10  16 E6        30.36F
WHEATON        FAIR      55  37  50 S9        30.36F
BRAINERD       FAIR      55  28  35 S5        30.38F
6HR MIN TEMP:  26; 6HR MAX TEMP:  55;

HIBBING        FAIR      54  22  28 VRB3      30.34F
6HR MIN TEMP:  24; 6HR MAX TEMP:  55;

ALEXANDRIA     FAIR      57  30  35 SW8       30.36F
6HR MIN TEMP:  34; 6HR MAX TEMP:  57;

SAINT CLOUD    FAIR      52  29  41 VRB3      30.38F
6HR MIN TEMP:  28; 6HR MAX TEMP:  53;

MINNEAPOLIS    FAIR      55  14  19 CALM      30.39F
6HR MIN TEMP:  38; 6HR MAX TEMP:  55;

$$

  *****  WEATHER ACROSS SOUTH DAKOTA  *****

CITY           SKY/WX    TMP DP  RH WIND       PRES   REMARKS
SIOUX FALLS    CLOUDY    47  34  60 E6        30.34S
6HR MIN TEMP:  38; 6HR MAX TEMP:  48; 6HR PCP: TRACE;

BROOKINGS      CLOUDY    48  34  58 E8        30.36S
WATERTOWN      CLOUDY    52  36  54 SE12      30.34S
6HR MIN TEMP:  36; 6HR MAX TEMP:  53;

HURON          CLOUDY    44  33  65 S8        30.34F
6HR MIN TEMP:  38; 6HR MAX TEMP:  44;

SISSETON         N/A     56  40  55 S10       30.33F
ABERDEEN       FAIR      57  38  48 S15G23    30.33F
6HR MIN TEMP:  38; 6HR MAX TEMP:  58;

MITCHELL       CLOUDY    46  37  71 CALM      30.35S
PIERRE         CLOUDY    46  41  82 SE9       30.29F
6HR MIN TEMP:  38; 6HR MAX TEMP:  47;

MOBRIDGE       PTSUNNY   56  37  49 S18       30.24F
RAPID CITY     FAIR      50  37  61 SW10G18   30.18F
6HR MIN TEMP:  38; 6HR MAX TEMP:  51;

$$

  *****  SOME WEATHER IN NEARBY STATES *****

CITY           SKY/WX    TMP DP  RH WIND       PRES   REMARKS
GLASGOW MT     FAIR      66  39  37 S14G21    29.98F
6HR MIN TEMP:  38; 6HR MAX TEMP:  66;

GREAT FALLS MT FAIR      59  31  34 SW24G33   29.98F
6HR MIN TEMP:  39; 6HR MAX TEMP:  60;

CHEYENNE WY    CLOUDY    37  33  85 N7        30.16F
6HR MIN TEMP:  30; 6HR MAX TEMP:  37; 6HR PCP:  0.16;

SCOTTSBLUFF NE LGT RAIN  38  38 100 SE5       30.22S
6HR MIN TEMP:  34; 6HR MAX TEMP:  39; 6HR PCP:  0.03;

OMAHA NE       CLOUDY    54  27  35 E10       30.29F
6HR MIN TEMP:  49; 6HR MAX TEMP:  54;

DES MOINES IA  CLOUDY    55  26  32 E9        30.32F
6HR MIN TEMP:  46; 6HR MAX TEMP:  55;

DAVENPORT IA   FAIR      54  28  36 E12       30.41F
6HR MIN TEMP:  43; 6HR MAX TEMP:  54;

CHICAGO IL     CLOUDY    52  25  35 VRB3      30.41F
6HR MIN TEMP:  43; 6HR MAX TEMP:  52;

EAU CLAIRE WI  FAIR      55  28  35 SW6       30.38F
6HR MIN TEMP:  32; 6HR MAX TEMP:  57;

LA CROSSE WI   FAIR      56  33  42 S16       30.41F
6HR MIN TEMP:  37; 6HR MAX TEMP:  57;

$$

  *****  SOME NATIONAL WEATHER *****

CITY           SKY/WX    TMP DP  RH WIND       PRES   REMARKS
LA GUARDIA NY  FAIR      57  23  26 NW13G20   30.32F
6HR MIN TEMP:  43; 6HR MAX TEMP:  57;

RALEIGH NC     FAIR      66  38  35 SW13      30.39F
6HR MIN TEMP:  44; 6HR MAX TEMP:  66;

ATLANTA GA     PTSUNNY   69  37  30 E9G17     30.30F
6HR MIN TEMP:  47; 6HR MAX TEMP:  69;

NEW ORLEANS LA PTSUNNY   75  59  57 SE10      30.13F
6HR MIN TEMP:  57; 6HR MAX TEMP:  76;

OKLAHOMA CITY  RAIN      47  46  97 N8        30.03R FOG
6HR MIN TEMP:  47; 6HR MAX TEMP:  48; 6HR PCP:  0.80;

ALBUQUERQUE NM FAIR      51  30  44 W8        30.16F
6HR MIN TEMP:  35; 6HR MAX TEMP:  51;

SALT LAKE CITY FAIR      63  30  28 CALM      30.19S
6HR MIN TEMP:  43; 6HR M



USA.gov is the U.S. government's official web portal to all federal, state and local government web resources and services.